IRIDIUM 33 DEB, 34487

Orbit data source: Space-Track

IRIDIUM 33 DEB, 34487 is space debris in LEO originally from a launch on Sun, 14 Sep 1997 UTC launched from the Tyuratam Missile And Space Complex (TTMTR). The debris from Iridium 33, an American commercial communications satellite, has been tracked extensively since its accidental collision with the defunct Russian satellite Cosmos 2251 in 2009. This event, occurring at high speed in low Earth orbit (LEO), generated thousands of pieces of space debris, significantly increasing the risk of further collisions. The Iridium 33 debris cloud has impacted space traffic management and orbital debris mitigation strategies, making it a subject of ongoing study in space situational awareness.

Loading next visibility...
Identifier
34487, 1997-051GC
Orbit
LEO
Country
Flag of USUS
Related business
Manufacturer
Unknown
Mission
Spacecraft
Bus & Motor
Unknown
Mass
Unknown
Launch date (UTC)
1997-09-14 (28 years ago)
Launch vehicle
Unknown
Launch site
Tyuratam Missile And Space Complex (TTMTR)
Object type
Payload
Rocket body
Debris
Shape & HBR
Unknown shape, 0.1 m
Radar Cross Section
Small (<0.1 m²)

Expand to show TLE details & history
Last TLE update: 18 hours ago

TLE from 18 hours ago
0 IRIDIUM 33 DEB
1 34487U 97051GC  26063.26090768  .00000963  00000-0  27821-3 0  9994
2 34487  86.3484 337.2952 0029309 218.1877 272.5388 14.43372275894249
Epoch: 2026-03-04T06:15Z
TLE epoch observation values (Epoch: 2026-03-04T06:15:42.423Z)
Latitude
49.57092°
Longitude
-102.93278°
Altitude
754.469 km
Speed
7.482 km/s
True Right ascension
10h 12m 05s
True Declination
49° 24' 04"
Sunlit
Object was in full shadow at epoch
Visualization orbit readout
Latitude
Unknown
Longitude
Unknown
Altitude
Unknown
Speed
Unknown
Apparent Right ascension
Unknown
Apparent Declination
Unknown
Sunlit
N/A
Visualization observer readout
Local Sidereal Time
03:44:20
Azimuth
Unknown
Elevation
Unknown
Doppler factor
Unknown
Orbital elements
Apogee altitude
765.206 km
Perigee altitude
723.455 km
Semi-major axis
7,122.468 km
Eccentricity
0.00293
Inclination
86.3484°
RAAN
337.2952°
Arg. of periapsis
218.1877°
True anomaly
272.20322°
Mean anomaly
272.5388°
Eccentric anomaly
272.37102°
Mean motion
3.61075 °/min
Orbital period
99.7 mins
BSTAR
0.00027821
Loading maneuver chart data...
Computing Atmospheric mass density...
Loading historical data...
Loading historical data...
Loading historical data...
Loading historical data...
Loading historical data...
Loading historical data...
Loading historical data...

Documentation

Showing up to 5 results
|